Terminal Aerodrome Forecast
Issued by NWS Pittsburgh, PA

Home | Current Version | Previous Version | Text Only | Print | Product List | Glossary On
Versions: 1 2 3 4 5 6 7 8 9 10 11 12 13 14 15 16 17 18 19 20 21 22 23 24 25 26 27 28
702
FTUS41 KPBZ 270533
TAFPIT
TAF
KPIT 270533Z 2706/2812 14005KT P6SM SCT250 WS020/20035KT
     FM271200 16009KT P6SM SCT250
     FM271700 18012G22KT P6SM BKN150
     FM272000 20010G19KT 6SM -SHRA VCTS BKN070CB
     FM280000 21008KT P6SM BKN020
     FM280900 27003KT P6SM SCT040=

USA.gov is the U.S. government's official web portal to all federal, state and local government web resources and services.